Tracking 19484 objects as of 20-Jan-2019
HD Live streaming from Space Station
objects crossing your sky now

JCSAT 2

Track JCSAT 2 now!
JCSAT 2 is classified as:


NORAD ID: 20402
Int'l Code: 1990-001B
Perigee: 36,007.3 km
Apogee: 36,565.6 km
Inclination: 13.7 °
Period: 1,461.3 minutes
Semi major axis: 42657 km
RCS: 1 m2 (large)
Launch date: January 1, 1990
Source: Japan (JPN)
Launch site: AIR FORCE EASTERN TEST RANGE (AFETR)
aabbcc
Your satellite tracking list
Your tracking list is empty




NASA's NSSDC Master Catalog

Two Line Element Set (TLE):
1 20402U 90001B   19019.24077706 -.00000173 +00000-0 +00000-0 0  9993
2 20402 013.7325 033.6668 0065441 257.9235 099.7727 00.98539479088669
Source of the keplerian elements: AFSPC